STARLINK-5569, 55379

Orbit data source: Space-Track

STARLINK-5569, 55379 is a payload satellite owned by SpaceX/Seattle (US) in LEO that was launched on Thu, 26 Jan 2023 UTC via an FALCON 9 launch vehicle from the Air Force Eastern Test Range (AFETR). Payload-class satellites include a variety of spacecraft equipped with specific instruments for various scientific and technological missions. These include communications satellites like Starlink; space stations such as the ISS; scientific satellites like the Hubble; Earth observation satellites from companies like Planet Labs, Umbra, and HawkEye 360; GPS; miniature CubeSats for education and research; and military/defense satellites.

Loading next visibility...
Identifier
55379, 2023-013BA
Orbit
LEO
Country
Flag of USUS
Related business
Manufacturer
SpaceX/Seattle
Mission
Operational Commercial Communications
Bus & Motor
STARLINK, Unknown motor
Mass
305 kg wet, ~290 kg dry
Launch date (UTC)
2023-01-26 (3 years ago)
Launch vehicle
FALCON 9
Launch site
Air Force Eastern Test Range (AFETR)
Object type
Payload
Rocket body
Debris
Shape & HBR
Box + 1 Pan, 10.1 m
Radar Cross Section
13.562 m², Large (>1 m²)

Expand to show TLE details & history
Last TLE update: 19 hours ago

TLE from 19 hours ago
0 STARLINK-5569
1 55379U 23013BA  25349.19678129 -.00001672  00000-0 -10870-3 0  9991
2 55379  43.0058  52.0747 0001606 266.2057  93.8602 15.02530659158858
Epoch: 2025-12-15T04:43Z
TLE epoch observation values (Epoch: 2025-12-15T04:43:21.903Z)
Latitude
-0°
Longitude
-102.86538°
Altitude
558.95 km
Speed
7.584 km/s
True Right ascension
03h 28m 17s
True Declination
0° 00' 00"
Sunlit
Object was in full shadow at epoch
Visualization orbit readout
Latitude
Unknown
Longitude
Unknown
Altitude
Unknown
Speed
Unknown
Apparent Right ascension
Unknown
Apparent Declination
Unknown
Sunlit
N/A
Visualization observer readout
Local Sidereal Time
22:49:21
Azimuth
Unknown
Elevation
Unknown
Doppler factor
Unknown
Orbital elements
Apogee altitude
562.133 km
Perigee altitude
559.905 km
Semi-major axis
6,939.156 km
Eccentricity
0.00016
Inclination
43.0058°
RAAN
52.0747°
Arg. of periapsis
266.2057°
True anomaly
93.87856°
Mean anomaly
93.8602°
Eccentric anomaly
93.86938°
Mean motion
3.75477 °/min
Orbital period
95.88 mins
BSTAR
-0.0001087
Loading maneuver chart data...
Computing Atmospheric mass density...
Loading historical data...
Loading historical data...
Loading historical data...
Loading historical data...
Loading historical data...
Loading historical data...
Loading historical data...

Documentation

Showing up to 5 results
|